TimeMDT,TemperatureF,Dew PointF,Humidity,Sea Level PressureIn,VisibilityMPH,Wind Direction,Wind SpeedMPH,Gust SpeedMPH,PrecipitationIn,Events,Conditions,WindDirDegrees,DateUTC
12:53 AM,25.0,21.9,88,30.10,10.0,WSW,5.8,-,N/A,,Mostly Cloudy,240,2012-10-07 06:53:00
1:53 AM,28.9,24.1,82,30.09,10.0,West,5.8,-,N/A,,Clear,260,2012-10-07 07:53:00
2:53 AM,30.0,25.0,82,30.07,10.0,WSW,8.1,-,N/A,,Clear,240,2012-10-07 08:53:00
3:53 AM,30.9,25.0,79,30.05,10.0,WSW,8.1,-,N/A,,Clear,240,2012-10-07 09:53:00
4:53 AM,32.0,26.1,79,30.04,10.0,WSW,11.5,-,N/A,,Clear,250,2012-10-07 10:53:00
5:53 AM,33.1,27.0,78,30.04,10.0,WSW,12.7,-,N/A,,Clear,250,2012-10-07 11:53:00
6:53 AM,32.0,28.0,85,30.04,10.0,WSW,11.5,-,N/A,,Clear,250,2012-10-07 12:53:00
7:53 AM,32.0,28.0,85,30.04,10.0,WSW,11.5,-,N/A,,Clear,250,2012-10-07 13:53:00
8:53 AM,37.0,30.9,79,30.04,10.0,WSW,11.5,-,N/A,,Clear,250,2012-10-07 14:53:00
9:53 AM,42.1,33.1,70,30.03,10.0,WSW,11.5,-,N/A,,Clear,250,2012-10-07 15:53:00
10:53 AM,48.0,34.0,58,30.01,10.0,West,10.4,-,N/A,,Clear,260,2012-10-07 16:53:00
11:53 AM,53.1,34.0,48,29.97,10.0,WSW,10.4,-,N/A,,Clear,250,2012-10-07 17:53:00
12:53 PM,55.0,33.1,43,29.95,10.0,West,11.5,-,N/A,,Clear,260,2012-10-07 18:53:00
1:53 PM,55.9,34.0,44,29.91,10.0,WSW,11.5,-,N/A,,Clear,250,2012-10-07 19:53:00
2:53 PM,57.0,34.0,42,29.88,10.0,WSW,9.2,-,N/A,,Clear,250,2012-10-07 20:53:00
3:53 PM,57.0,36.0,45,29.84,10.0,WSW,10.4,-,N/A,,Mostly Cloudy,240,2012-10-07 21:53:00
4:53 PM,57.0,36.0,45,29.81,10.0,SW,4.6,-,N/A,,Overcast,220,2012-10-07 22:53:00
5:53 PM,55.4,37.4,51,29.74,10.0,SW,4.6,-,N/A,,Partly Cloudy,230,2012-10-07 23:53:00
6:53 PM,52.0,37.9,59,29.76,10.0,Calm,Calm,-,N/A,,Mostly Cloudy,0,2012-10-08 00:53:00
7:53 PM,54.0,39.0,57,29.75,10.0,SW,5.8,-,N/A,,Overcast,230,2012-10-08 01:53:00
8:53 PM,51.1,39.0,63,29.74,10.0,WNW,4.6,-,N/A,,Overcast,290,2012-10-08 02:53:00
9:53 PM,52.0,39.0,61,29.70,10.0,West,3.5,-,N/A,,Overcast,260,2012-10-08 03:53:00
10:53 PM,51.1,37.9,61,29.70,10.0,West,6.9,-,N/A,,Clear,270,2012-10-08 04:53:00
11:53 PM,54.0,37.9,55,29.70,8.0,WNW,13.8,-,N/A,,Clear,300,2012-10-08 05:53:00